METEREN Weather Reports


time (UTC)temp
C
wind
direction
speed
KPH
gust
KPH
rain 1hr
cm
rain 24hr
cm
rain mn
cm
humidity
%
barometer
mb
20260902141502 22 360 8.0 20.9 0.00 0.00 0.00 68 1018.7
20260902140100 22 360 16.1 29.0 0.00 0.00 0.00 67 1018.8
20260902134600 22 360 8.0 20.9 0.00 0.00 0.00 71 1018.9
20260902133059 21 360 6.4 16.1 0.00 0.00 0.00 74 1019.0
20260902131554 20 360 6.4 14.5 0.00 0.00 0.00 76 1019.0
20260902130054 20 360 6.4 17.7 0.00 0.00 0.00 77 1019.0
20260902124555 20 360 8.0 16.1 0.00 0.00 0.00 78 1018.9
20260902123059 20 360 9.7 16.1 0.00 0.00 0.00 79 1019.0
20260902121607 20 360 9.7 14.5 0.00 0.00 0.00 77 1019.1
20260902114610 21 360 6.4 12.9 0.00 0.00 0.00 74 1019.0
20260902113059 21 360 6.4 17.7 0.00 0.00 0.00 71 1019.1
20260902111600 21 83 6.4 14.5 0.00 0.00 0.00 74 1019.2
20260902110054 21 360 9.7 20.9 0.00 0.00 0.00 76 1019.1
20260902104547 21 360 8.0 17.7 0.00 0.00 0.00 78 1019.2
20260902103047 20 360 11.3 19.3 0.00 0.00 0.00 80 1019.3
20260902101539 20 360 3.2 17.7 0.00 0.00 0.00 82 1019.2
20260902100038 20 360 11.3 17.7 0.00 0.00 0.00 81 1019.2
20260902094536 19 360 8.0 16.1 0.00 0.00 0.00 83 1019.1
20260902093033 18 360 6.4 20.9 0.00 0.00 0.00 84 1019.2
20260902091540 18 360 6.4 16.1 0.00 0.00 0.00 84 1019.3
20260902090028 18 360 4.8 16.1 0.00 0.00 0.00 84 1019.0
20260902084528 18 360 4.8 16.1 0.00 0.00 0.00 84 1018.8
20260902083029 18 360 6.4 12.9 0.00 0.00 0.00 85 1018.8
20260902081528 17 360 6.4 16.1 0.00 0.00 0.00 85 1018.8
20260902080022 17 360 1.6 14.5 0.00 0.00 0.00 86 1018.7
20260902074524 17 360 4.8 14.5 0.00 0.00 0.00 86 1018.5
20260902073018 17 360 8.0 12.9 0.00 0.00 0.00 86 1018.6
20260902071514 16 360 8.0 12.9 0.00 0.00 0.00 88 1018.7
20260902070010 15 360 9.7 14.5 0.00 0.00 0.00 88 1018.6
20260902064507 15 360 3.2 11.3 0.00 0.00 0.00 90 1018.5
20260902063013 14 360 3.2 12.9 0.00 0.00 0.00 90 1018.5
20260902061501 14 360 4.8 9.7 0.00 0.00 0.00 91 1018.5
20260902060104 13 360 3.2 9.7 0.00 0.00 0.00 91 1018.5
20260902054556 13 360 6.4 12.9 0.00 0.00 0.00 91 1018.3
20260902053102 13 360 4.8 9.7 0.00 0.00 0.00 90 1018.4
20260902051555 13 360 4.8 9.7 0.00 0.00 0.00 90 1018.3
20260902050048 13 360 4.8 9.7 0.00 0.00 0.00 90 1018.3
20260902044547 13 360 1.6 8.0 0.00 0.00 0.00 90 1018.2
20260902043047 13 360 1.6 8.0 0.00 0.00 0.00 90 1018.2
20260902041545 13 360 3.2 9.7 0.00 0.00 0.00 90 1018.2
20260902040043 13 360 3.2 9.7 0.00 0.00 0.00 89 1018.3
20260902034558 13 360 1.6 9.7 0.00 0.00 0.00 89 1018.4
20260902033046 13 360 1.6 9.7 0.00 0.00 0.00 89 1018.4
20260902031541 14 360 3.2 8.0 0.00 0.00 0.00 88 1018.5
20260902030041 14 360 0.0 6.4 0.00 0.00 0.00 88 1018.5
20260902024542 14 360 0.0 8.0 0.00 0.00 0.00 88 1018.6
20260902023043 14 360 4.8 9.7 0.00 0.00 0.00 89 1018.7
20260902021538 13 360 0.0 6.4 0.00 0.00 0.00 89 1018.9
20260902020043 13 360 1.6 6.4 0.00 0.00 0.00 88 1018.8
20260902014539 13 360 0.0 6.4 0.00 0.00 0.00 89 1018.8
20260902013040 13 360 1.6 9.7 0.00 0.00 0.00 89 1018.9
20260902011536 13 360 4.8 9.7 0.00 0.00 0.00 90 1018.9
20260902010036 13 360 1.6 8.0 0.00 0.00 0.00 89 1018.8
20260902004534 13 360 1.6 6.4 0.00 0.00 0.00 89 1018.9
20260902003035 13 360 0.0 0.0 0.00 0.00 0.00 88 1019.0
20260902001544 13 360 0.0 0.0 0.00 0.00 0.00 88 1019.0
20260902000038 13 360 0.0 0.0 0.00 0.00 0.00 87 1019.0
20260901234528 13 360 0.0 6.4 0.00 0.00 0.00 87 1019.0
20260901233031 14 360 0.0 0.0 0.00 0.00 0.00 87 1019.2
20260901231524 14 360 0.0 0.0 0.00 0.00 0.00 86 1019.3
20260901230027 14 360 0.0 1.6 0.00 0.00 0.00 85 1019.4
20260901224527 15 360 0.0 0.0 0.00 0.00 0.00 85 1019.3
20260901223020 15 360 0.0 0.0 0.00 0.00 0.00 85 1019.4
20260901221517 15 360 0.0 0.0 0.00 0.00 0.00 84 1019.3
20260901220026 15 360 0.0 0.0 0.00 0.00 0.00 83 1019.2
20260901214515 15 360 0.0 0.0 0.00 0.00 0.00 83 1019.1
20260901213014 15 360 0.0 0.0 0.00 0.00 0.00 82 1019.5
20260901211523 15 360 1.6 3.2 0.00 0.00 0.00 81 1019.6
20260901210014 15 360 0.0 0.0 0.00 0.00 0.00 81 1019.6
20260901204520 16 360 0.0 0.0 0.00 0.00 0.00 79 1019.7
20260901203019 16 360 0.0 0.0 0.00 0.00 0.00 79 1019.7
20260901201512 16 360 0.0 6.4 0.00 0.00 0.00 79 1019.7
20260901200011 16 360 1.6 4.8 0.00 0.00 0.00 78 1019.6
20260901194509 16 360 0.0 0.0 0.00 0.00 0.00 77 1019.4
20260901193009 17 360 0.0 0.0 0.00 0.00 0.00 76 1019.2
20260901191509 17 360 0.0 0.0 0.00 0.00 0.00 74 1019.2
20260901190008 17 360 0.0 3.2 0.00 0.00 0.00 72 1019.4
20260901184510 17 360 1.6 8.0 0.00 0.00 0.00 71 1019.2
20260901183006 18 360 4.8 9.7 0.00 0.00 0.00 70 1019.2
20260901181512 18 360 4.8 9.7 0.00 0.00 0.00 69 1019.1
20260901180006 19 360 4.8 12.9 0.00 0.00 0.00 67 1019.2
20260901174505 19 360 9.7 16.1 0.00 0.00 0.00 66 1019.3
20260901173004 20 360 9.7 20.9 0.00 0.00 0.00 64 1019.1
20260901171504 20 360 9.7 19.3 0.00 0.00 0.00 64 1019.2
20260901170006 20 360 8.0 16.1 0.00 0.00 0.00 63 1019.1
20260901164504 20 360 4.8 17.7 0.00 0.00 0.00 63 1019.2
20260901163003 21 360 9.7 16.1 0.00 0.00 0.00 62 1019.0
20260901161602 21 360 8.0 19.3 0.00 0.00 0.00 62 1018.9
20260901160101 21 360 8.0 19.3 0.00 0.00 0.00 60 1018.9
20260901154609 21 360 9.7 19.3 0.00 0.00 0.00 60 1018.9
20260901153103 21 123 8.0 12.9 0.00 0.00 0.00 61 1018.8
20260901151600 21 360 8.0 16.1 0.00 0.00 0.00 59 1018.9
20260901150108 21 360 11.3 19.3 0.00 0.00 0.00 60 1018.8
20260901144557 21 360 11.3 22.5 0.00 0.00 0.00 60 1018.8
20260901143057 21 360 9.7 24.1 0.00 0.00 0.00 61 1018.8